Time,TemperatureF,DewpointF,PressureIn,WindDirection,WindDirectionDegrees,WindSpeedMPH,WindSpeedGustMPH,Humidity,HourlyPrecipIn,Conditions,Clouds,dailyrainin,SoftwareType,DateUTC
2013-07-05 00:02:00,59.0,52.0,30.02,WSW,254,0.0,1.0,77,-99.99,,,-99.99,,2013-07-05 07:02:00,
2013-07-05 00:12:00,59.0,52.0,30.02,NW,317,1.0,5.0,78,-99.99,,,-99.99,,2013-07-05 07:12:00,
2013-07-05 00:23:00,58.0,52.0,30.02,NNE,27,0.0,1.0,79,-99.99,,,-99.99,,2013-07-05 07:23:00,
2013-07-05 00:33:00,58.0,52.0,30.02,NNE,27,0.0,0.0,80,-99.99,,,-99.99,,2013-07-05 07:33:00,
2013-07-05 00:53:00,57.0,52.0,30.02,NNE,27,0.0,1.0,82,-99.99,,,-99.99,,2013-07-05 07:53:00,
2013-07-05 01:02:00,57.0,52.0,30.02,NNE,27,0.0,1.0,83,-99.99,,,-99.99,,2013-07-05 08:02:00,
2013-07-05 01:12:00,56.0,51.0,30.02,NNE,27,0.0,1.0,84,-99.99,,,-99.99,,2013-07-05 08:12:00,
2013-07-05 01:22:00,56.0,51.0,30.02,NNE,27,0.0,0.0,84,-99.99,,,-99.99,,2013-07-05 08:22:00,
2013-07-05 01:33:00,56.0,52.0,30.02,NE,38,1.0,3.0,85,-99.99,,,-99.99,,2013-07-05 08:33:00,
2013-07-05 01:43:00,56.0,51.0,30.02,NE,46,0.0,1.0,84,-99.99,,,-99.99,,2013-07-05 08:43:00,
2013-07-05 01:53:00,56.0,52.0,30.02,NE,46,0.0,1.0,85,-99.99,,,-99.99,,2013-07-05 08:53:00,
2013-07-05 02:12:00,56.0,52.0,30.02,NE,46,0.0,1.0,85,-99.99,,,-99.99,,2013-07-05 09:12:00,
2013-07-05 02:22:00,56.0,52.0,30.02,NE,46,0.0,0.0,85,-99.99,,,-99.99,,2013-07-05 09:22:00,
2013-07-05 02:43:00,55.0,51.0,30.02,NE,46,0.0,0.0,86,-99.99,,,-99.99,,2013-07-05 09:43:00,
2013-07-05 02:53:00,55.0,51.0,30.02,NE,46,0.0,0.0,87,-99.99,,,-99.99,,2013-07-05 09:53:00,
2013-07-05 03:02:00,55.0,51.0,30.02,NE,46,0.0,0.0,87,-99.99,,,-99.99,,2013-07-05 10:02:00,
2013-07-05 03:23:00,55.0,51.0,30.02,NE,46,0.0,1.0,87,-99.99,,,-99.99,,2013-07-05 10:23:00,
2013-07-05 03:34:00,56.0,52.0,30.02,NE,46,0.0,1.0,87,-99.99,,,-99.99,,2013-07-05 10:34:00,
2013-07-05 03:54:00,55.0,51.0,30.01,NE,46,0.0,0.0,86,-99.99,,,-99.99,,2013-07-05 10:54:00,
2013-07-05 04:02:00,55.0,51.0,30.01,NE,46,0.0,1.0,87,-99.99,,,-99.99,,2013-07-05 11:02:00,
2013-07-05 04:12:00,54.0,50.0,30.01,NE,46,0.0,0.0,87,-99.99,,,-99.99,,2013-07-05 11:12:00,
2013-07-05 04:44:00,54.0,51.0,30.01,NE,46,0.0,1.0,89,-99.99,,,-99.99,,2013-07-05 11:44:00,
2013-07-05 04:53:00,54.0,51.0,30.01,NE,46,0.0,1.0,89,-99.99,,,-99.99,,2013-07-05 11:53:00,
2013-07-05 05:12:00,54.0,51.0,30.01,NE,46,0.0,1.0,90,-99.99,,,-99.99,,2013-07-05 12:12:00,
2013-07-05 05:22:00,54.0,51.0,30.01,NE,46,0.0,0.0,90,-99.99,,,-99.99,,2013-07-05 12:22:00,
2013-07-05 05:33:00,54.0,51.0,30.01,NE,46,0.0,0.0,90,-99.99,,,-99.99,,2013-07-05 12:33:00,
2013-07-05 05:43:00,54.0,51.0,30.01,NE,46,0.0,0.0,90,-99.99,,,-99.99,,2013-07-05 12:43:00,
2013-07-05 05:53:00,54.0,51.0,30.01,NE,46,0.0,0.0,90,-99.99,,,-99.99,,2013-07-05 12:53:00,
2013-07-05 06:02:00,54.0,51.0,30.01,NE,46,0.0,1.0,90,-99.99,,,-99.99,,2013-07-05 13:02:00,
2013-07-05 06:12:00,54.0,51.0,30.01,NE,46,0.0,1.0,90,-99.99,,,-99.99,,2013-07-05 13:12:00,
2013-07-05 06:23:00,54.0,51.0,30.01,NE,46,0.0,0.0,91,-99.99,,,-99.99,,2013-07-05 13:23:00,
2013-07-05 06:35:00,54.0,51.0,30.01,NE,46,0.0,0.0,91,-99.99,,,-99.99,,2013-07-05 13:35:00,
2013-07-05 06:54:00,55.0,53.0,30.01,NE,46,0.0,1.0,92,-99.99,,,-99.99,,2013-07-05 13:54:00,
2013-07-05 07:03:00,56.0,53.0,30.01,East,86,1.0,2.0,91,-99.99,,,-99.99,,2013-07-05 14:03:00,
2013-07-05 07:12:00,57.0,53.0,30.01,SW,221,0.0,3.0,88,-99.99,,,-99.99,,2013-07-05 14:12:00,
2013-07-05 07:22:00,57.0,53.0,30.01,SW,221,0.0,3.0,88,-99.99,,,-99.99,,2013-07-05 14:22:00,
2013-07-05 07:34:00,57.0,53.0,30.01,WSW,245,1.0,4.0,87,-99.99,,,-99.99,,2013-07-05 14:34:00,
2013-07-05 07:43:00,58.0,54.0,30.02,WSW,247,0.0,3.0,85,-99.99,,,-99.99,,2013-07-05 14:43:00,
2013-07-05 07:53:00,58.0,54.0,30.02,SW,225,0.0,2.0,85,-99.99,,,-99.99,,2013-07-05 14:53:00,
2013-07-05 08:02:00,58.0,54.0,30.02,WSW,241,1.0,3.0,85,-99.99,,,-99.99,,2013-07-05 15:02:00,
2013-07-05 08:12:00,58.0,54.0,30.02,WSW,249,1.0,4.0,85,-99.99,,,-99.99,,2013-07-05 15:12:00,
2013-07-05 08:22:00,58.0,53.0,30.02,West,259,0.0,5.0,84,-99.99,,,-99.99,,2013-07-05 15:22:00,
2013-07-05 08:33:00,59.0,54.0,30.02,WSW,237,1.0,4.0,83,-99.99,,,-99.99,,2013-07-05 15:33:00,
2013-07-05 08:43:00,60.0,54.0,30.02,SW,219,1.0,2.0,80,-99.99,,,-99.99,,2013-07-05 15:43:00,
2013-07-05 08:53:00,60.0,54.0,30.02,WSW,238,0.0,3.0,80,-99.99,,,-99.99,,2013-07-05 15:53:00,
2013-07-05 09:11:00,62.0,54.0,30.02,SSE,155,0.0,5.0,75,-99.99,,,-99.99,,2013-07-05 16:11:00,
2013-07-05 09:22:00,61.0,53.0,30.02,SE,132,0.0,4.0,75,-99.99,,,-99.99,,2013-07-05 16:22:00,
2013-07-05 09:33:00,62.0,52.0,30.02,ESE,119,1.0,5.0,71,-99.99,,,-99.99,,2013-07-05 16:33:00,
2013-07-05 09:44:00,62.0,53.0,30.02,SSE,150,2.0,7.0,72,-99.99,,,-99.99,,2013-07-05 16:44:00,
2013-07-05 09:53:00,62.0,52.0,30.02,SE,133,0.0,5.0,71,-99.99,,,-99.99,,2013-07-05 16:53:00,
2013-07-05 10:01:00,62.0,53.0,30.02,SSE,164,0.0,3.0,72,-99.99,,,-99.99,,2013-07-05 17:01:00,
2013-07-05 10:11:00,62.0,53.0,30.02,South,178,2.0,5.0,72,-99.99,,,-99.99,,2013-07-05 17:11:00,
2013-07-05 10:22:00,62.0,53.0,30.02,SE,141,1.0,4.0,73,-99.99,,,-99.99,,2013-07-05 17:22:00,
2013-07-05 10:32:00,62.0,53.0,30.01,SE,145,1.0,5.0,73,-99.99,,,-99.99,,2013-07-05 17:32:00,
2013-07-05 10:42:00,62.0,54.0,30.01,SE,136,2.0,5.0,74,-99.99,,,-99.99,,2013-07-05 17:42:00,
2013-07-05 10:53:00,62.0,53.0,30.01,South,169,2.0,6.0,73,-99.99,,,-99.99,,2013-07-05 17:53:00,
2013-07-05 11:01:00,63.0,54.0,30.01,SSE,154,2.0,6.0,72,-99.99,,,-99.99,,2013-07-05 18:01:00,
2013-07-05 11:11:00,63.0,53.0,30.01,ESE,116,0.0,5.0,71,-99.99,,,-99.99,,2013-07-05 18:11:00,
2013-07-05 11:22:00,64.0,54.0,30.01,South,181,2.0,9.0,70,-99.99,,,-99.99,,2013-07-05 18:22:00,
2013-07-05 11:33:00,64.0,54.0,30.01,SW,227,1.0,3.0,69,-99.99,,,-99.99,,2013-07-05 18:33:00,
2013-07-05 11:42:00,65.0,53.0,30.01,SSE,147,3.0,7.0,66,-99.99,,,-99.99,,2013-07-05 18:42:00,
2013-07-05 11:53:00,67.0,54.0,30.01,South,170,2.0,7.0,64,-99.99,,,-99.99,,2013-07-05 18:53:00,
2013-07-05 12:01:00,68.0,54.0,30.01,SW,215,2.0,7.0,62,-99.99,,,-99.99,,2013-07-05 19:01:00,
2013-07-05 12:12:00,69.0,54.0,30.01,SSE,161,1.0,7.0,59,-99.99,,,-99.99,,2013-07-05 19:12:00,
2013-07-05 12:22:00,69.0,54.0,30.01,SW,219,0.0,6.0,59,-99.99,,,-99.99,,2013-07-05 19:22:00,
2013-07-05 12:33:00,69.0,54.0,30.01,SSW,203,0.0,5.0,59,-99.99,,,-99.99,,2013-07-05 19:33:00,
2013-07-05 12:42:00,68.0,54.0,30.01,SSE,151,2.0,6.0,60,-99.99,,,-99.99,,2013-07-05 19:42:00,
2013-07-05 12:52:00,68.0,54.0,30.01,SSE,151,2.0,6.0,60,-99.99,,,-99.99,,2013-07-05 19:52:00,
2013-07-05 13:01:00,68.0,52.0,30.01,SSW,210,1.0,5.0,57,-99.99,,,-99.99,,2013-07-05 20:01:00,
2013-07-05 13:11:00,69.0,53.0,30.01,WSW,251,1.0,4.0,57,-99.99,,,-99.99,,2013-07-05 20:11:00,
2013-07-05 13:43:00,70.0,53.0,30.00,SSW,211,1.0,3.0,55,-99.99,,,-99.99,,2013-07-05 20:43:00,
2013-07-05 13:53:00,71.0,53.0,30.00,NW,308,0.0,4.0,53,-99.99,,,-99.99,,2013-07-05 20:53:00,
2013-07-05 14:01:00,71.0,54.0,30.00,NNE,21,1.0,5.0,54,-99.99,,,-99.99,,2013-07-05 21:01:00,
2013-07-05 14:11:00,72.0,53.0,30.00,NW,306,2.0,6.0,51,-99.99,,,-99.99,,2013-07-05 21:11:00,
2013-07-05 14:34:00,74.0,52.0,30.00,SSE,148,3.0,13.0,47,-99.99,,,-99.99,,2013-07-05 21:34:00,
2013-07-05 14:42:00,74.0,53.0,29.99,South,176,3.0,11.0,48,-99.99,,,-99.99,,2013-07-05 21:42:00,
2013-07-05 14:53:00,74.0,52.0,29.99,SSW,213,1.0,10.0,47,-99.99,,,-99.99,,2013-07-05 21:53:00,
2013-07-05 15:01:00,74.0,53.0,29.99,SW,232,3.0,7.0,48,-99.99,,,-99.99,,2013-07-05 22:01:00,
2013-07-05 15:11:00,73.0,53.0,29.99,South,182,2.0,12.0,49,-99.99,,,-99.99,,2013-07-05 22:11:00,
2013-07-05 15:21:00,74.0,54.0,29.99,WNW,286,1.0,12.0,50,-99.99,,,-99.99,,2013-07-05 22:21:00,
2013-07-05 15:33:00,75.0,53.0,29.99,WSW,241,8.0,12.0,47,-99.99,,,-99.99,,2013-07-05 22:33:00,
2013-07-05 15:43:00,75.0,53.0,29.99,SW,222,3.0,7.0,46,-99.99,,,-99.99,,2013-07-05 22:43:00,
2013-07-05 15:53:00,75.0,54.0,29.98,WSW,257,2.0,7.0,48,-99.99,,,-99.99,,2013-07-05 22:53:00,
2013-07-05 16:02:00,76.0,54.0,29.98,SSW,213,0.0,10.0,46,-99.99,,,-99.99,,2013-07-05 23:02:00,
2013-07-05 16:11:00,76.0,54.0,29.98,SSW,213,0.0,10.0,46,-99.99,,,-99.99,,2013-07-05 23:11:00,
2013-07-05 16:32:00,75.0,53.0,29.98,WNW,293,1.0,8.0,47,-99.99,,,-99.99,,2013-07-05 23:32:00,
2013-07-05 16:42:00,75.0,53.0,29.98,NNW,333,3.0,7.0,47,-99.99,,,-99.99,,2013-07-05 23:42:00,
2013-07-05 16:53:00,75.0,54.0,29.98,WSW,252,5.0,10.0,48,-99.99,,,-99.99,,2013-07-05 23:53:00,
2013-07-05 17:01:00,75.0,54.0,29.97,SSE,153,1.0,6.0,48,-99.99,,,-99.99,,2013-07-06 00:01:00,
2013-07-05 17:11:00,74.0,54.0,29.97,West,264,2.0,7.0,50,-99.99,,,-99.99,,2013-07-06 00:11:00,
2013-07-05 17:21:00,73.0,53.0,29.97,South,182,0.0,6.0,50,-99.99,,,-99.99,,2013-07-06 00:21:00,
2013-07-05 17:33:00,74.0,53.0,29.96,West,259,1.0,4.0,48,-99.99,,,-99.99,,2013-07-06 00:33:00,
2013-07-05 17:42:00,73.0,54.0,29.96,SSW,202,2.0,7.0,51,-99.99,,,-99.99,,2013-07-06 00:42:00,
2013-07-05 17:53:00,73.0,54.0,29.96,West,262,1.0,4.0,52,-99.99,,,-99.99,,2013-07-06 00:53:00,
2013-07-05 18:01:00,72.0,53.0,29.96,SSW,204,2.0,7.0,52,-99.99,,,-99.99,,2013-07-06 01:01:00,
2013-07-05 18:12:00,72.0,53.0,29.96,SW,232,3.0,6.0,52,-99.99,,,-99.99,,2013-07-06 01:12:00,
2013-07-05 18:22:00,72.0,54.0,29.96,SW,233,1.0,6.0,53,-99.99,,,-99.99,,2013-07-06 01:22:00,
2013-07-05 18:42:00,72.0,54.0,29.95,NNW,343,0.0,6.0,53,-99.99,,,-99.99,,2013-07-06 01:42:00,
2013-07-05 18:52:00,72.0,54.0,29.95,SE,146,1.0,7.0,53,-99.99,,,-99.99,,2013-07-06 01:52:00,
2013-07-05 19:02:00,72.0,53.0,29.95,SSE,152,2.0,6.0,52,-99.99,,,-99.99,,2013-07-06 02:02:00,
2013-07-05 19:33:00,72.0,53.0,29.94,NNW,331,1.0,4.0,51,-99.99,,,-99.99,,2013-07-06 02:33:00,
2013-07-05 19:42:00,72.0,53.0,29.94,WNW,284,0.0,3.0,51,-99.99,,,-99.99,,2013-07-06 02:42:00,
2013-07-05 19:52:00,71.0,52.0,29.94,West,279,0.0,3.0,52,-99.99,,,-99.99,,2013-07-06 02:52:00,
2013-07-05 20:02:00,71.0,53.0,29.94,West,279,0.0,2.0,53,-99.99,,,-99.99,,2013-07-06 03:02:00,
2013-07-05 20:11:00,70.0,52.0,29.95,West,279,1.0,2.0,53,-99.99,,,-99.99,,2013-07-06 03:11:00,
2013-07-05 20:22:00,70.0,53.0,29.95,West,279,0.0,1.0,54,-99.99,,,-99.99,,2013-07-06 03:22:00,
2013-07-05 20:34:00,69.0,52.0,29.95,West,279,0.0,2.0,54,-99.99,,,-99.99,,2013-07-06 03:34:00,
2013-07-05 20:43:00,68.0,53.0,29.95,West,279,0.0,4.0,58,-99.99,,,-99.99,,2013-07-06 03:43:00,
2013-07-05 20:52:00,68.0,53.0,29.95,SW,234,0.0,4.0,59,-99.99,,,-99.99,,2013-07-06 03:52:00,
2013-07-05 21:01:00,68.0,54.0,29.95,SW,234,0.0,1.0,61,-99.99,,,-99.99,,2013-07-06 04:01:00,
2013-07-05 21:12:00,67.0,54.0,29.95,SW,234,0.0,2.0,63,-99.99,,,-99.99,,2013-07-06 04:12:00,
2013-07-05 21:22:00,67.0,54.0,29.95,SW,234,0.0,2.0,63,-99.99,,,-99.99,,2013-07-06 04:22:00,
2013-07-05 21:33:00,66.0,53.0,29.95,SW,233,0.0,1.0,64,-99.99,,,-99.99,,2013-07-06 04:33:00,
2013-07-05 21:43:00,66.0,53.0,29.95,SW,233,0.0,0.0,64,-99.99,,,-99.99,,2013-07-06 04:43:00,
2013-07-05 21:53:00,65.0,53.0,29.95,SW,234,0.0,2.0,65,-99.99,,,-99.99,,2013-07-06 04:53:00,
2013-07-05 22:02:00,65.0,53.0,29.95,SW,234,0.0,0.0,66,-99.99,,,-99.99,,2013-07-06 05:02:00,
2013-07-05 22:11:00,64.0,53.0,29.95,SW,234,0.0,1.0,67,-99.99,,,-99.99,,2013-07-06 05:11:00,
2013-07-05 22:22:00,64.0,53.0,29.95,SW,234,0.0,1.0,67,-99.99,,,-99.99,,2013-07-06 05:22:00,
2013-07-05 22:33:00,64.0,54.0,29.96,SW,234,0.0,0.0,69,-99.99,,,-99.99,,2013-07-06 05:33:00,
2013-07-05 22:42:00,64.0,54.0,29.96,SW,234,0.0,0.0,70,-99.99,,,-99.99,,2013-07-06 05:42:00,
2013-07-05 22:52:00,64.0,54.0,29.96,SW,234,0.0,0.0,70,-99.99,,,-99.99,,2013-07-06 05:52:00,
2013-07-05 23:01:00,63.0,54.0,29.95,SW,234,0.0,0.0,72,-99.99,,,-99.99,,2013-07-06 06:01:00,
2013-07-05 23:12:00,63.0,54.0,29.95,SW,234,0.0,0.0,72,-99.99,,,-99.99,,2013-07-06 06:12:00,
2013-07-05 23:22:00,63.0,54.0,29.95,SW,234,0.0,0.0,72,-99.99,,,-99.99,,2013-07-06 06:22:00,
2013-07-05 23:33:00,62.0,54.0,29.95,SW,234,0.0,0.0,74,-99.99,,,-99.99,,2013-07-06 06:33:00,
2013-07-05 23:43:00,62.0,54.0,29.95,SW,234,0.0,0.0,75,-99.99,,,-99.99,,2013-07-06 06:43:00,
2013-07-05 23:53:00,62.0,54.0,29.95,SW,234,0.0,0.0,75,-99.99,,,-99.99,,2013-07-06 06:53:00,